Location: Asheville, NC
(35.6000°N, 82.5500°W)
Time: 03:09:20
(UTC-04:00)

Vanguard 3 - Pass Details

Date: 09 March 2018
Orbit: 508 x 3264 km, 33.3° (Epoch: 19 June)

Event Time Altitude Azimuth Distance (km) Brightness Sun altitude
Rises 07:04:36 0° 205° (SSW) 7,115 11.8 2.3°
Reaches altitude 10° 07:10:26 10° 195° (SSW) 6,186 11.6 3.4°
Maximum altitude 07:25:47 29° 144° (SE) 4,467 11.6 6.5°
Drops below altitude 10° 07:38:18 10° 92° (E) 5,081 13.6 9.0°
Sets 07:42:23 0° 82° (E) 5,720 13.0 9.8°
